Regional Weather Roundup
Issued by NWS

Home | Current Version | Previous Version | Text Only | Print | Product List | Glossary Off
Versions: 1 2 3 4 5 6 7 8 9 10 11 12 13 14 15 16 17 18 19 20 21 22 23 24 25 26 27 28 29 30 31 32 33 34 35 36 37 38 39 40 41 42 43 44 45 46 47 48 49 50

000
ASUS45 KTFX 070310
RWRMT
MONTANA REGIONAL WEATHER ROUNDUP
NATIONAL WEATHER SERVICE GREAT FALLS MT
800 PM MST TUE DEC 06 2016

NOTE: "FAIR" INDICATES FEW OR NO CLOUDS BELOW 12000 FEET WITH NO
SIGNIFICANT WEATHER AND/OR OBSTRUCTIONS TO VISIBILITY.

MTZ001>007-043-070400-
WEST OF THE DIVIDE

CITY           SKY/WX    TMP DP  RH WIND       PRES   REMARKS
KALISPELL      CLEAR     10  -1  61 N22G30    30.16R WCI -10
MISSOULA       CLOUDY    14   2  58 E15       30.13R WCI  -1
BUTTE          CLOUDY     4  -1  80 N7        29.95R WCI  -8
MULLAN PASS    LGT SNOW   7   4  87 CALM      29.89R FOG
ANACONDA         N/A      1  -4  78 NE3       30.02R
DEER LODGE       N/A      1  -6  71 NW10      30.06R WCI -14
EUREKA           N/A      3  -2  78 CALM      30.20R
HAMILTON         N/A     16   3  57 N9        30.07R WCI   4
LIBBY            N/A     19  10  68 CALM      30.14R
RONAN            N/A     18   9  68 CALM      30.12R
$$

MTZ008-052>055-070400-
SOUTHWEST MONTANA

CITY           SKY/WX    TMP DP  RH WIND       PRES   REMARKS
BOZEMAN        LGT SNOW   7   0  73 NW8       30.06R WCI  -6
DILLON         CLOUDY     6   0  76 NE13      29.94R WCI -10
W YELLOWSTONE  CLOUDY     0  -2  92 CALM      29.81R
ENNIS          CLOUDY     5   0  78 N9G15     30.00R HAZE    WCI  -9
THREE FORKS      N/A      8 -56   4 NW7       30.06R WCI  -3
TWIN BRIDGES     N/A      7  -3  63 N15       29.96  WCI -10
$$

MTZ009-010-012-014-046-048-049-054-070400-
EAST SLOPES AND CENTRAL MONTANA

CITY           SKY/WX    TMP DP  RH WIND       PRES   REMARKS
CUT BANK       CLOUDY    -4 -10  75 NW16      30.23R WCI -25
GREAT FALLS    CLOUDY     0  -7  72 NW9       30.25R WCI -15
MALMSTROM AFB  FLURRIES   0  -5  76 NW6       30.28R WCI -11
HELENA         CLOUDY     3  -5  69 W10       30.18R WCI -12
AUGUSTA        FLURRIES  -4 -10  77 N9        30.18R WCI -21
BOWMANS CRNR   CLOUDY    -6 -10  81 N6        30.17R WCI -18
CHOTEAU          N/A     -4 -11  71 MISG      30.25R
CONRAD           N/A     -3 -11  69 W3        30.23S
FAIRFIELD      CLOUDY    -5 -11  73 W7        30.23R WCI -19
POWER          MOCLDY    -4 -10  77 NW9       30.23R WCI -20
RAYNESFORD     FLURRIES  -2  -7  80 W6        30.21R WCI -14
ULM            FLURRIES  -1  -5  81 N10       30.27R WCI -17
$$

MTZ011-013-016-021-045-047-050-051-070400-
NORTH CENTRAL MONTANA

CITY           SKY/WX    TMP DP  RH WIND       PRES   REMARKS
HAVRE          CLOUDY     1  -6  72 NW9       30.33S WCI -14
LEWISTOWN      CLOUDY    -2  -7  79 NW12      30.16R WCI -20
N BAR RANCH      N/A     -2 -11  65 W9        30.10R WCI -18
CHINOOK          N/A      0  -8  71 W14G21    30.33R WCI -19
DENTON           N/A     -2  -8  78 SW17G26   30.19R WCI -24
GEYSER         MOCLDY    -1  -6  78 W17       30.17R WCI -22
GRASS RANGE      N/A      0  -6  74 W18G25    30.13R WCI -21
JUDITH GAP       N/A     -6 -11  80 N17G23    30.08R WCI -29
ROY              N/A     -1  -6  78 MISG      30.17R
STANFORD         N/A     -7 -11  84 W3        30.13R
$$

MTZ017>020-022>027-061-062-070400-
NORTHEAST MONTANA

CITY           SKY/WX    TMP DP  RH WIND       PRES   REMARKS
GLASGOW        CLOUDY     1  -7  68 NW28      30.23R WCI -24
JORDAN           N/A     -1  -7  75 NW14      30.24R WCI -20
SIDNEY         CLOUDY     2  -6  69 NW26G35   30.16R WCI -22
WOLF POINT     CLOUDY     1  -7  68 W13       30.23S WCI -17
PLENTYWOOD       N/A      0  -6  78 NW21G26   30.12R WCI -23
POPLAR           N/A      0  -9  65 W12       30.22S WCI -18
SCOBEY           N/A      0 -11  60 NW14      30.13  WCI -18
$$

MTZ028>42-056>058-070400-
SOUTHCENTRAL AND SOUTHEAST MONTANA

CITY           SKY/WX    TMP DP  RH WIND       PRES   REMARKS
BILLINGS       FLURRIES   7  -1  70 NE13      30.14R WCI  -9
LIVINGSTON     LGT SNOW   5  -1  76 E8        30.05R WCI  -8
MILES CITY     CLEAR      2  -6  69 NW13      30.22R WCI -15
BIG TIMBER     CLOUDY     3  -4  72 NE9       30.10R WCI -11
FORSYTH          N/A      3  -4  72 NW3       30.23R
HARLOWTON      CLOUDY    -1  -6  77 N25G32    30.07R WCI -25
LAUREL           N/A      8  -4  58 N9        30.10R WCI  -5
$$

REGIONAL REPORTS...DAKOTAS

CITY           SKY/WX    TMP DP  RH WIND       PRES   REMARKS
WILLISTON      CLOUDY     4  -4  69 NW20G28   30.14R WCI -17
MINOT          LGT SNOW   6   1  80 W31G41    29.96R WCI -18
DICKINSON      CLOUDY     2  -5  72 NW25      30.04R HAZE    WCI -22
BEACH          CLOUDY     0  -4  85 NW20      30.14R WCI -22
CROSBY         CLOUDY     5   0  78 NW28G35   30.10R FOG     WCI -18
TIOGA          LGT SNOW   3   1  92 NW24G31   30.05S WCI -20
WATFORD CITY   CLOUDY     1  -4  78 W20G28    30.12R WCI -20
BISMARCK       CLOUDY     6   2  83 W21G36    30.03R WCI -14
GRAND FORKS    LGT SNOW  18  13  80 W26G38    29.66R BLWGSNOWWCI  -1
FARGO          MOCLDY    15   8  73 W30G45    29.73R WCI  -5
BUFFALO SD       N/A      5  -3  69 NW22      30.01R WCI -16
RAPID CITY     CLEAR      4  -2  76 N15       30.07R WCI -14
$$

REGIONAL REPORTS...WYOMING/IDAHO/WASHINGTON

CITY           SKY/WX    TMP DP  RH WIND       PRES   REMARKS
GILLETTE       CLOUDY     1  -2  87 NW7       30.04R WCI -12
SHERIDAN       CLOUDY     8   1  73 W7        30.09R WCI  -3
BUFFALO WY     CLOUDY     6   0  76 N7        30.01R WCI  -6
CODY           FLURRIES   6   2  83 N13       29.98R WCI -10
YELLOWSTONE LA   N/A      4   1  88 CALM      29.74R
IDAHO FALLS    LGT SNOW  17  12  80 N9        29.90R WCI   6
SALMON         CLOUDY    10   9  92 CALM      29.99R
BOISE          PTCLDY    21  18  88 W7        30.06R WCI  12
SPOKANE        PTCLDY    22  13  68 NW6       30.13R WCI  14
$$

REGIONAL REPORTS...ALBERTA

CITY           SKY/WX    TMP DP  RH WIND       PRES   REMARKS
$$

REGIONAL REPORTS...SASKATCHEWAN

CITY           SKY/WX    TMP DP  RH WIND       PRES   REMARKS
REGINA         FLURRIES   3  -2  78 NW22G31   30.13R WCI -19
$$



USA.gov is the U.S. government's official web portal to all federal, state and local government web resources and services.